• în România
  • Lista ţărilor
  • Pe 7 zile
  • Temperatura apei
  • Hartă satelitară
  • Meteo pe hartă
  • Widget-uri
  • user-avatar
    Intrare

    Meteo pe oră la Lubango

    Astăzi, 23 Mai, Marţi

    Timp Temperatura Precipitaţii Vânt Presiune Umiditate
    00:00 +10°C° 0 mm 1 m/s 607 mmHg 67%
    01:00 +11°C° 0 mm 1 m/s 607 mmHg 60%
    02:00 +11°C° 0 mm 1 m/s 607 mmHg 60%
    03:00 +10°C° 0 mm 1 m/s 607 mmHg 59%
    04:00 +9°C° 0 mm 2 m/s 607 mmHg 58%
    05:00 +10°C° 0 mm 2 m/s 607 mmHg 56%
    06:00 +10°C° 0 mm 2 m/s 608 mmHg 54%
    07:00 +10°C° 0 mm 2 m/s 608 mmHg 52%
    08:00 +15°C° 0 mm 2 m/s 609 mmHg 44%
    09:00 +19°C° 0 mm 2 m/s 611 mmHg 36%
    10:00 +22°C° 0 mm 3 m/s 612 mmHg 28%
    11:00 +25°C° 0 mm 2 m/s 612 mmHg 26%
    12:00 +26°C° 0 mm 2 m/s 612 mmHg 24%
    13:00 +27°C° 0 mm 2 m/s 613 mmHg 22%
    14:00 +26°C° 0 mm 2 m/s 612 mmHg 23%
    15:00 +26°C° 0 mm 2 m/s 611 mmHg 24%
    16:00 +26°C° 0 mm 2 m/s 611 mmHg 25%
    17:00 +21°C° 0 mm 2 m/s 610 mmHg 33%
    18:00 +17°C° 0 mm 2 m/s 609 mmHg 42%
    19:00 +14°C° 0 mm 1 m/s 607 mmHg 50%
    20:00 +13°C° 0 mm 1 m/s 607 mmHg 55%
    21:00 +11°C° 0 mm 1 m/s 607 mmHg 60%
    22:00 +10°C° 0 mm 1 m/s 607 mmHg 66%
    23:00 +10°C° 0 mm 1 m/s 607 mmHg 67%

    Mâine, 24 Mai, Miercuri

    Timp Temperatura Precipitaţii Vânt Presiune Umiditate
    00:00 +10°C° 0 mm 1 m/s 607 mmHg 69%
    01:00 +10°C° 0 mm 1 m/s 607 mmHg 71%
    02:00 +10°C° 0 mm 1 m/s 607 mmHg 71%
    03:00 +10°C° 0 mm 1 m/s 606 mmHg 71%
    04:00 +9°C° 0 mm 1 m/s 606 mmHg 72%
    05:00 +10°C° 0 mm 1 m/s 607 mmHg 67%
    06:00 +11°C° 0 mm 1 m/s 607 mmHg 63%
    07:00 +11°C° 0 mm 1 m/s 607 mmHg 59%
    08:00 +16°C° 0 mm 1 m/s 609 mmHg 48%
    09:00 +21°C° 0 mm 1 m/s 611 mmHg 37%
    10:00 +24°C° 0 mm 0 m/s 614 mmHg 26%
    11:00 +26°C° 0 mm 1 m/s 613 mmHg 24%
    12:00 +27°C° 0 mm 1 m/s 613 mmHg 23%
    13:00 +28°C° 0 mm 2 m/s 612 mmHg 22%
    14:00 +27°C° 0 mm 2 m/s 612 mmHg 22%
    15:00 +27°C° 0 mm 2 m/s 611 mmHg 23%
    16:00 +26°C° 0 mm 2 m/s 611 mmHg 24%
    17:00 +21°C° 0 mm 2 m/s 610 mmHg 32%
    18:00 +17°C° 0 mm 2 m/s 608 mmHg 41%
    19:00 +13°C° 0 mm 1 m/s 607 mmHg 49%
    20:00 +12°C° 0 mm 1 m/s 607 mmHg 55%
    21:00 +11°C° 0 mm 1 m/s 607 mmHg 61%
    22:00 +9°C° 0 mm 1 m/s 607 mmHg 66%
    23:00 +9°C° 0 mm 1 m/s 606 mmHg 68%

    Poimâine, 25 Mai, Joi

    Timp Temperatura Precipitaţii Vânt Presiune Umiditate
    00:00 +9°C° 0 mm 1 m/s 606 mmHg 70%
    01:00 +7°C° 0 mm 0 m/s 606 mmHg 71%
    02:00 +8°C° 0 mm 1 m/s 606 mmHg 70%
    03:00 +9°C° 0 mm 1 m/s 606 mmHg 69%
    04:00 +9°C° 0 mm 1 m/s 605 mmHg 68%
    05:00 +9°C° 0 mm 1 m/s 606 mmHg 64%
    06:00 +10°C° 0 mm 1 m/s 606 mmHg 60%
    07:00 +11°C° 0 mm 1 m/s 607 mmHg 56%
    08:00 +15°C° 0 mm 1 m/s 609 mmHg 46%
    09:00 +21°C° 0 mm 1 m/s 611 mmHg 36%
    10:00 +25°C° 0 mm 1 m/s 613 mmHg 26%
    11:00 +26°C° 0 mm 1 m/s 613 mmHg 24%
    12:00 +27°C° 0 mm 2 m/s 613 mmHg 22%
    13:00 +28°C° 0 mm 2 m/s 612 mmHg 20%
    14:00 +27°C° 0 mm 2 m/s 612 mmHg 21%
    15:00 +27°C° 0 mm 2 m/s 611 mmHg 22%
    16:00 +26°C° 0 mm 2 m/s 611 mmHg 22%
    17:00 +21°C° 0 mm 2 m/s 609 mmHg 31%
    18:00 +17°C° 0 mm 2 m/s 608 mmHg 40%
    19:00 +13°C° 0 mm 1 m/s 607 mmHg 48%
    20:00 +12°C° 0 mm 1 m/s 607 mmHg 54%
    21:00 +11°C° 0 mm 1 m/s 607 mmHg 59%
    22:00 +10°C° 0 mm 1 m/s 607 mmHg 65%
    23:00 +10°C° 0 mm 1 m/s 607 mmHg 69%

    26 Mai, Vineri

    Timp Temperatura Precipitaţii Vânt Presiune Umiditate
    00:00 +9°C° 0 mm 1 m/s 606 mmHg 73%
    01:00 +8°C° 0 mm 0 m/s 606 mmHg 77%
    02:00 +9°C° 0 mm 1 m/s 606 mmHg 75%
    03:00 +9°C° 0 mm 1 m/s 606 mmHg 73%
    04:00 +9°C° 0 mm 1 m/s 606 mmHg 71%
    05:00 +10°C° 0 mm 1 m/s 606 mmHg 66%
    06:00 +11°C° 0 mm 1 m/s 607 mmHg 60%
    07:00 +11°C° 0 mm 1 m/s 608 mmHg 54%
    08:00 +16°C° 0 mm 1 m/s 610 mmHg 44%
    09:00 +22°C° 0 mm 1 m/s 612 mmHg 34%
    10:00 +24°C° 0 mm 0 m/s 614 mmHg 24%
    11:00 +27°C° 0 mm 1 m/s 613 mmHg 22%
    12:00 +28°C° 0 mm 1 m/s 613 mmHg 21%
    13:00 +29°C° 0 mm 1 m/s 613 mmHg 20%
    14:00 +28°C° 0 mm 2 m/s 612 mmHg 21%
    15:00 +27°C° 0 mm 2 m/s 611 mmHg 23%
    16:00 +26°C° 0 mm 2 m/s 611 mmHg 25%
    17:00 +21°C° 0 mm 2 m/s 610 mmHg 34%
    18:00 +18°C° 0 mm 2 m/s 609 mmHg 43%
    19:00 +14°C° 0 mm 2 m/s 608 mmHg 52%
    20:00 +13°C° 0 mm 2 m/s 608 mmHg 57%
    21:00 +12°C° 0 mm 1 m/s 608 mmHg 62%
    22:00 +12°C° 0 mm 1 m/s 608 mmHg 66%
    23:00 +11°C° 0 mm 1 m/s 608 mmHg 66%

    27 Mai, Sâmbătă

    Timp Temperatura Precipitaţii Vânt Presiune Umiditate
    00:00 +11°C° 0 mm 1 m/s 608 mmHg 67%
    01:00 +11°C° 0 mm 1 m/s 607 mmHg 67%
    02:00 +11°C° 0 mm 1 m/s 607 mmHg 65%
    03:00 +11°C° 0 mm 1 m/s 607 mmHg 62%
    04:00 +11°C° 0 mm 1 m/s 607 mmHg 60%
    05:00 +12°C° 0 mm 1 m/s 608 mmHg 57%
    06:00 +13°C° 0 mm 1 m/s 608 mmHg 53%
    07:00 +13°C° 0 mm 1 m/s 609 mmHg 50%
    08:00 +18°C° 0 mm 1 m/s 611 mmHg 42%
    09:00 +21°C° 0 mm 2 m/s 612 mmHg 35%
    10:00 +25°C° 0 mm 2 m/s 614 mmHg 27%
    11:00 +27°C° 0 mm 1 m/s 614 mmHg 25%
    12:00 +28°C° 0 mm 1 m/s 614 mmHg 23%
    13:00 +30°C° 0 mm 1 m/s 614 mmHg 21%
    14:00 +28°C° 0 mm 1 m/s 613 mmHg 25%
    15:00 +27°C° 0 mm 1 m/s 612 mmHg 28%
    16:00 +26°C° 0 mm 1 m/s 611 mmHg 31%
    17:00 +23°C° 0 mm 1 m/s 611 mmHg 37%
    18:00 +20°C° 0 mm 1 m/s 610 mmHg 43%
    19:00 +18°C° 0 mm 1 m/s 610 mmHg 49%
    20:00 +16°C° 0 mm 1 m/s 609 mmHg 53%
    21:00 +15°C° 0 mm 1 m/s 609 mmHg 57%
    22:00 +14°C° 0 mm 1 m/s 609 mmHg 62%
    23:00 +13°C° 0 mm 1 m/s 609 mmHg 63%

    28 Mai, Duminică

    Timp Temperatura Precipitaţii Vânt Presiune Umiditate
    00:00 +13°C° 0 mm 1 m/s 608 mmHg 64%
    01:00 +12°C° 0 mm 1 m/s 608 mmHg 65%
    02:00 +12°C° 0 mm 1 m/s 608 mmHg 64%
    03:00 +12°C° 0 mm 1 m/s 608 mmHg 64%
    04:00 +12°C° 0 mm 1 m/s 608 mmHg 64%
    05:00 +12°C° 0 mm 1 m/s 608 mmHg 61%
    06:00 +13°C° 0 mm 1 m/s 609 mmHg 58%
    07:00 +14°C° 0 mm 1 m/s 609 mmHg 56%
    08:00 +18°C° 0 mm 1 m/s 611 mmHg 46%
    09:00 +21°C° 0 mm 2 m/s 613 mmHg 37%
    10:00 +26°C° 0 mm 2 m/s 615 mmHg 28%
    11:00 +27°C° 0 mm 2 m/s 614 mmHg 27%
    12:00 +28°C° 0 mm 1 m/s 614 mmHg 26%
    13:00 +29°C° 0 mm 1 m/s 614 mmHg 24%
    14:00 +27°C° 0 mm 1 m/s 613 mmHg 29%
    15:00 +26°C° 0 mm 1 m/s 612 mmHg 33%
    16:00 +24°C° 0 mm 1 m/s 611 mmHg 38%
    17:00 +22°C° 0 mm 1 m/s 611 mmHg 42%
    18:00 +20°C° 0 mm 1 m/s 610 mmHg 46%
    19:00 +16°C° 0 mm 1 m/s 610 mmHg 50%
    20:00 +15°C° 0 mm 1 m/s 610 mmHg 56%
    21:00 +14°C° 0 mm 1 m/s 609 mmHg 61%
    22:00 +12°C° 0 mm 1 m/s 609 mmHg 67%
    23:00 +12°C° 0 mm 1 m/s 608 mmHg 67%
    Arată mai mult